LL37 weather

OSF Saint Francis Medical Center Heliport
Peoria, Illinois, United States

Public forecast

Using degrees Fahrenheit for public forecast. Weather courtesy of forecast.io.

METAR (pilot weather report)

Closest report is General Wayne A. Downing Peoria International Airport, 5.1 nm (9.4 km) WSW. Retrieved 2019/06/20 05:27 UTC (0 seconds ago):

KPIA 200527Z 01006KT 10SM -RA BKN008 BKN110 17/15 A2961

TAF (pilot weather forecast)

Closest forecast is General Wayne A. Downing Peoria International Airport, 5.1 nm (9.4 km) WSW. Retrieved 2019/06/20 01:00 UTC (4 hours ago):

TAF KPIA 200058Z 2001/2024 07008KT 4SM -RA BR OVC020 TEMPO 2001/2005 1 1/2SM TSRA BR OVC015CB FM200500 03010KT 5SM SHRA BR OVC020 FM200700 03013KT P6SM VCSH OVC020 FM201100 34009KT P6SM BKN010 FM201700 33007KT P6SM SCT030